Port Angeles, WA

7:26 PM PDT on April 24, 2017 (GMT -0700)
Fairchild International

Weather History for KCLM - February, 2014

Change the Weather History Date:

Monday, February 17, 2014

  Actual Average Record
Temperature  
Mean Temperature 41 °F -  
Max Temperature 46 °F 47 °F 59 °F (2004)
Min Temperature 36 °F 34 °F 20 °F (1993)
Degree Days  
Heating Degree Days 24    
Moisture  
Dew Point 37 °F    
Average Humidity 86    
Maximum Humidity 97    
Minimum Humidity 71    
Precipitation  
Precipitation 0.33 in - - ()
Sea Level Pressure  
Sea Level Pressure 29.75 in    
Wind  
Wind Speed 6 mph (WSW)    
Max Wind Speed 13 mph    
Max Gust Speed 21 mph    
Visibility 10 miles    
Events Rain    
Averages and records for this station are not official NWS values.
T = Trace of Precipitation, MM = Missing Value Source: NWS Daily Summary

Daily Weather History Graph

Daily Weather History Graph

Search for Another Location

Airport or City:

Trip Planner

Search our weather history database for the weather conditions in past years. The results will help you decide how hot, cold, wet, or windy it might be!

Date:

Astronomy

Feb. 17, 2014 Rise Set
Actual Time 7:16 AM PST 5:39 PM PST
Civil Twilight 6:45 AM PST 6:11 PM PST
Nautical Twilight 6:08 AM PST 6:47 PM PST
Astronomical Twilight 5:32 AM PST 7:23 PM PST
Moon 8:57 PM PST (2/17) 8:05 AM PST (2/17)
Length of Visible Light 11h 26m
Length of Day
10h 22m
Waning Gibbous, 93% of the Moon is Illuminated
Feb 17
Waning Gibbous
Feb 22
Last Quarter
Mar 1
New
Mar 8
First Quarter
Mar 16
Full

Hourly Weather History & Observations

Time (PST) Temp. Windchill Dew Point Humidity Pressure Visibility Wind Dir Wind Speed Gust Speed Precip Events Conditions
12:53 AM 41.0 °F 39.0 °F 39.0 °F 93% 29.68 in 10.0 mi SSW 3.5 mph - 0.07 in Rain Light Rain
1:53 AM 41.0 °F 38.0 °F 37.9 °F 89% 29.70 in 10.0 mi NNW 4.6 mph - 0.03 in Rain Light Rain
2:01 AM 41.0 °F 35.8 °F 39.0 °F 93% 29.69 in 7.0 mi WNW 8.1 mph - 0.01 in Rain Light Rain
2:14 AM 41.0 °F 37.1 °F 39.0 °F 93% 29.69 in 7.0 mi WNW 5.8 mph - 0.03 in Rain Light Rain
2:49 AM 41.0 °F 36.4 °F 37.4 °F 87% 29.67 in 10.0 mi SE 6.9 mph - 0.09 in Rain Light Rain
2:53 AM 41.0 °F 36.4 °F 37.9 °F 89% 29.68 in 10.0 mi SSE 6.9 mph - 0.09 in Rain Light Rain
3:53 AM 39.9 °F 35.8 °F 37.0 °F 89% 29.68 in 10.0 mi SSE 5.8 mph - 0.00 in   Overcast
4:53 AM 41.0 °F - 37.0 °F 86% 29.67 in 10.0 mi Calm Calm - 0.00 in   Overcast
5:53 AM 37.9 °F 35.5 °F 37.0 °F 97% 29.67 in 10.0 mi Variable 3.5 mph - N/A   Overcast
6:53 AM 39.0 °F - 37.9 °F 96% 29.66 in 10.0 mi Calm Calm - 0.00 in Rain Light Rain
7:53 AM 39.0 °F 35.7 °F 37.9 °F 96% 29.67 in 10.0 mi SW 4.6 mph - 0.00 in   Overcast
8:53 AM 41.0 °F 39.0 °F 39.0 °F 93% 29.69 in 10.0 mi SW 3.5 mph - 0.00 in   Overcast
9:35 AM 41.0 °F 36.4 °F 37.0 °F 86% 29.70 in 4.0 mi West 6.9 mph - 0.06 in Rain Rain
9:50 AM 42.8 °F 38.6 °F 39.2 °F 87% 29.71 in 10.0 mi West 6.9 mph - 0.07 in Rain Light Rain
9:53 AM 42.1 °F 37.7 °F 39.0 °F 89% 29.71 in 10.0 mi WSW 6.9 mph - 0.07 in   Overcast
10:53 AM 46.9 °F - 39.0 °F 74% 29.73 in 10.0 mi WSW 10.4 mph - 0.00 in Rain Light Rain
11:53 AM 46.9 °F - 37.9 °F 71% 29.75 in 10.0 mi West 12.7 mph 20.7 mph 0.00 in   Partly Cloudy
12:53 PM 45.0 °F 39.3 °F 37.0 °F 74% 29.77 in 10.0 mi West 11.5 mph - 0.00 in   Overcast
1:50 PM 42.8 °F 38.0 °F 37.4 °F 81% 29.78 in 10.0 mi WNW 8.1 mph - 0.02 in Rain Light Rain
1:53 PM 43.0 °F 38.2 °F 37.9 °F 82% 29.79 in 10.0 mi West 8.1 mph - 0.02 in Rain Light Rain
2:04 PM 42.1 °F 37.7 °F 37.0 °F 82% 29.79 in 10.0 mi West 6.9 mph - 0.00 in   Overcast
2:53 PM 45.0 °F 39.7 °F 39.0 °F 80% 29.80 in 10.0 mi WSW 10.4 mph - 0.03 in   Overcast
3:53 PM 44.1 °F 39.5 °F 37.0 °F 76% 29.80 in 10.0 mi West 8.1 mph - N/A   Clear
4:53 PM 42.1 °F 36.6 °F 36.0 °F 79% 29.83 in 10.0 mi NW 9.2 mph 19.6 mph 0.00 in Rain Light Rain
5:53 PM 37.9 °F 34.4 °F 36.0 °F 93% 29.83 in 10.0 mi WSW 4.6 mph - 0.00 in   Partly Cloudy
6:53 PM 36.0 °F 32.1 °F 34.0 °F 93% 29.83 in 10.0 mi South 4.6 mph - N/A   Clear
7:53 PM 37.9 °F 30.9 °F 33.1 °F 83% 29.84 in 10.0 mi West 10.4 mph - N/A   Partly Cloudy
8:53 PM 39.0 °F - 33.1 °F 79% 29.87 in 10.0 mi Calm Calm - N/A   Scattered Clouds
9:53 PM 41.0 °F 34.7 °F 34.0 °F 76% 29.89 in 10.0 mi WSW 10.4 mph - 0.00 in Rain Light Rain
10:53 PM 39.9 °F 35.1 °F 35.1 °F 83% 29.89 in 10.0 mi South 6.9 mph - 0.02 in   Mostly Cloudy
11:53 PM 37.0 °F 34.5 °F 34.0 °F 89% 29.88 in 10.0 mi SE 3.5 mph - 0.00 in   Mostly Cloudy